Tracking 19709 objects as of 20-Jun-2019
HD Live streaming from Space Station
objects crossing your sky now

COSMOS 684

Track COSMOS 684 now!
10-day predictions
COSMOS 684 is classified as:


NORAD ID: 7442
Int'l Code: 1974-072H
Perigee: 1,423.0 km
Apogee: 1,473.0 km
Inclination: 74.0 °
Period: 114.7 minutes
Semi major axis: 7818 km
RCS: 0.701 m2 (medium)
Launch date: September 19, 1974
Source: Commonwealth of Independent States (former USSR) (CIS)
Launch site: PLESETSK MISSILE AND SPACE COMPLEX (PKMTR)
aabbcc
Your satellite tracking list
Your tracking list is empty




NASA's NSSDC Master Catalog

Two Line Element Set (TLE):
1  7442U 74072H   19170.67605104 +.00000007 +00000-0 +14153-3 0  9998
2  7442 074.0355 252.9434 0031990 103.9278 353.2689 12.55676976051088
Source of the keplerian elements: AFSPC